MSR652 EDDF-ENGM

Flight info

Callsign MSR652
Flight time N/A
Altitude 39000
Route MARUN3W/25C MARUN Y150 TOLGI/N0450F380 DCT ELSOB DCT ATTUS DCT PIPEX/N0451F390 M609 RIPAM
Aircraft A20N/M-SDE2E3FGHIRWXY/LB1

Departure

Time 2026-04-17 13:39
Airport Frankfurt Main Airport (EDDF)

Arrival

Time N/A
Airport Oslo-Gardermoen International Airport (ENGM)
Time Latitude Longitude Altitude Speed Heading
2026-04-17 13:02 50.04686 8.56705 365 ft 0 kts 116°
2026-04-17 13:23 50.04693 8.56684 361 ft 2 kts 118°
2026-04-17 13:23 50.04701 8.56662 360 ft 2 kts 122°
2026-04-17 13:23 50.04710 8.56641 361 ft 2 kts 129°
2026-04-17 13:23 50.04721 8.56623 361 ft 2 kts 154°
2026-04-17 13:24 50.04737 8.56623 359 ft 2 kts 226°
2026-04-17 13:24 50.04741 8.56630 359 ft 0 kts 235°
2026-04-17 13:27 50.04733 8.56611 361 ft 6 kts 235°
2026-04-17 13:27 50.04696 8.56538 358 ft 11 kts 230°
2026-04-17 13:28 50.04664 8.56423 359 ft 13 kts 250°
2026-04-17 13:28 50.04629 8.56278 360 ft 16 kts 249°
2026-04-17 13:28 50.04588 8.56106 360 ft 18 kts 250°
2026-04-17 13:28 50.04539 8.55967 361 ft 14 kts 207°
2026-04-17 13:29 50.04438 8.55916 358 ft 17 kts 196°
2026-04-17 13:29 50.04319 8.55943 361 ft 18 kts 162°
2026-04-17 13:29 50.04217 8.55918 359 ft 15 kts 204°
2026-04-17 13:29 50.04118 8.55958 360 ft 16 kts 158°
2026-04-17 13:30 50.04082 8.56086 364 ft 15 kts 66°
2026-04-17 13:30 50.04118 8.56198 362 ft 10 kts 63°
2026-04-17 13:30 50.04137 8.56322 357 ft 13 kts 74°
2026-04-17 13:30 50.04171 8.56467 363 ft 15 kts 70°
2026-04-17 13:31 50.04211 8.56633 358 ft 15 kts 69°
2026-04-17 13:31 50.04245 8.56773 362 ft 15 kts 69°
2026-04-17 13:31 50.04282 8.56932 359 ft 14 kts 70°
2026-04-17 13:31 50.04287 8.56954 361 ft 4 kts 70°
2026-04-17 13:32 50.04302 8.57016 364 ft 8 kts 70°
2026-04-17 13:32 50.04325 8.57114 359 ft 11 kts 70°
2026-04-17 13:32 50.04355 8.57243 359 ft 14 kts 70°
2026-04-17 13:32 50.04394 8.57396 365 ft 16 kts 68°
2026-04-17 13:33 50.04435 8.57572 362 ft 18 kts 70°
2026-04-17 13:33 50.04482 8.57769 361 ft 20 kts 68°
2026-04-17 13:33 50.04526 8.57952 361 ft 18 kts 70°
2026-04-17 13:33 50.04565 8.58117 362 ft 15 kts 70°
2026-04-17 13:34 50.04603 8.58272 364 ft 14 kts 69°
2026-04-17 13:34 50.04607 8.58290 361 ft 1 kts 70°
2026-04-17 13:34 50.04616 8.58327 363 ft 7 kts 70°
2026-04-17 13:34 50.04640 8.58426 361 ft 12 kts 69°
2026-04-17 13:35 50.04643 8.58549 364 ft 11 kts 131°
2026-04-17 13:35 50.04594 8.58587 364 ft 0 kts 159°
2026-04-17 13:37 50.04587 8.58591 363 ft 3 kts 159°
2026-04-17 13:37 50.04548 8.58614 363 ft 7 kts 159°
2026-04-17 13:37 50.04498 8.58612 365 ft 8 kts 222°
2026-04-17 13:38 50.04481 8.58566 364 ft 0 kts 249°
2026-04-17 13:39 50.04470 8.58520 367 ft 28 kts 249°
2026-04-17 13:39 50.04294 8.57783 365 ft 113 kts 250°
2026-04-17 13:39 50.03946 8.56316 406 ft 170 kts 250°
2026-04-17 13:39 50.03527 8.54594 1146 ft 171 kts 249°
2026-04-17 13:40 50.03116 8.52889 2199 ft 168 kts 249°
2026-04-17 13:40 50.02697 8.51115 2911 ft 183 kts 248°
2026-04-17 13:40 50.01975 8.49372 3515 ft 201 kts 224°
2026-04-17 13:40 50.00784 8.48209 4298 ft 205 kts 199°
2026-04-17 13:41 49.99365 8.47790 5138 ft 211 kts 188°
2026-04-17 13:41 49.97918 8.47502 6028 ft 217 kts 188°
2026-04-17 13:41 49.96332 8.47156 6656 ft 237 kts 191°
2026-04-17 13:41 49.94734 8.46483 7473 ft 243 kts 197°
2026-04-17 13:42 49.93108 8.45714 8430 ft 247 kts 198°
2026-04-17 13:42 49.91623 8.44365 9331 ft 252 kts 225°
2026-04-17 13:42 49.90720 8.42038 10229 ft 257 kts 254°
2026-04-17 13:42 49.90650 8.39280 11101 ft 259 kts 283°
2026-04-17 13:43 49.91437 8.36773 11926 ft 265 kts 310°
2026-04-17 13:43 49.92928 8.35048 12694 ft 273 kts 333°
2026-04-17 13:43 49.94740 8.33872 13166 ft 294 kts 338°
2026-04-17 13:43 49.96739 8.32731 13472 ft 318 kts 339°
2026-04-17 13:44 49.98890 8.31474 13735 ft 342 kts 338°
2026-04-17 13:44 50.01114 8.30102 14268 ft 352 kts 336°
2026-04-17 13:44 50.03446 8.28894 15032 ft 357 kts 348°
2026-04-17 13:44 50.05494 8.28650 15633 ft 363 kts
2026-04-17 13:45 50.06723 8.28878 15990 ft 367 kts 10°
2026-04-17 13:45 50.09194 8.30042 16713 ft 373 kts 17°
2026-04-17 13:45 50.11667 8.31352 17434 ft 378 kts 17°
2026-04-17 13:45 50.14166 8.32676 18148 ft 382 kts 17°
2026-04-17 13:46 50.16636 8.34262 18799 ft 388 kts 29°
2026-04-17 13:46 50.18923 8.36559 19433 ft 392 kts 31°
2026-04-17 13:46 50.21244 8.38833 20066 ft 395 kts 30°
2026-04-17 13:46 50.23595 8.41086 20711 ft 398 kts 29°
2026-04-17 13:47 50.25965 8.43362 21351 ft 402 kts 30°
2026-04-17 13:47 50.28323 8.45651 21939 ft 406 kts 30°
2026-04-17 13:47 50.30729 8.47998 22556 ft 409 kts 30°
2026-04-17 13:47 50.33155 8.50370 23154 ft 413 kts 30°
2026-04-17 13:48 50.35598 8.52762 23745 ft 416 kts 30°
2026-04-17 13:48 50.38058 8.55172 24284 ft 418 kts 30°
2026-04-17 13:48 50.40533 8.57601 24822 ft 420 kts 29°
2026-04-17 13:48 50.43016 8.60039 25333 ft 422 kts 29°
2026-04-17 13:49 50.45514 8.62495 25843 ft 425 kts 29°
2026-04-17 13:49 50.48021 8.64963 26338 ft 427 kts 29°
2026-04-17 13:49 50.50511 8.67416 26813 ft 429 kts 29°
2026-04-17 13:49 50.53045 8.69917 27291 ft 431 kts 29°
2026-04-17 13:50 50.55589 8.72432 27753 ft 434 kts 29°
2026-04-17 13:50 50.58153 8.74969 28196 ft 436 kts 29°
2026-04-17 13:50 50.60723 8.77517 28629 ft 438 kts 29°
2026-04-17 13:50 50.63311 8.80084 29055 ft 440 kts 29°
2026-04-17 13:51 50.65905 8.82661 29445 ft 442 kts 28°
2026-04-17 13:51 50.68512 8.85256 29844 ft 444 kts 28°
2026-04-17 13:51 50.71101 8.87834 30223 ft 447 kts 28°
2026-04-17 13:51 50.73734 8.90462 30583 ft 448 kts 28°
2026-04-17 13:52 50.76371 8.93097 30935 ft 450 kts 28°
2026-04-17 13:52 50.79021 8.95748 31292 ft 451 kts 28°
2026-04-17 13:52 50.81668 8.98400 31719 ft 450 kts 28°
2026-04-17 13:52 50.84309 9.01051 32206 ft 448 kts 28°
2026-04-17 13:53 50.86936 9.03691 32682 ft 446 kts 28°
2026-04-17 13:53 50.89549 9.06321 33138 ft 444 kts 28°
2026-04-17 13:53 50.92117 9.08909 33599 ft 442 kts 28°
2026-04-17 13:53 50.94707 9.11521 34042 ft 441 kts 27°
2026-04-17 13:54 50.99858 9.16725 34759 ft 438 kts 27°
2026-04-17 13:54 51.02432 9.19330 35064 ft 438 kts 27°
2026-04-17 13:55 51.07562 9.24516 35665 ft 436 kts 26°
2026-04-17 13:55 51.10225 9.26755 35946 ft 431 kts 19°
2026-04-17 13:55 51.15810 9.29757 36474 ft 423 kts
2026-04-17 13:56 51.21558 9.31736 36995 ft 422 kts
2026-04-17 13:56 51.24426 9.32744 37253 ft 422 kts
2026-04-17 13:56 51.27288 9.33746 37516 ft 421 kts
2026-04-17 13:57 51.30153 9.34746 37746 ft 421 kts
2026-04-17 13:57 51.33015 9.35743 37989 ft 420 kts
2026-04-17 13:57 51.38720 9.37730 38451 ft 419 kts
2026-04-17 13:58 51.41535 9.38712 38645 ft 420 kts
2026-04-17 13:58 51.47379 9.40748 38635 ft 426 kts
2026-04-17 13:59 51.53104 9.42762 39022 ft 417 kts
2026-04-17 13:59 51.55943 9.43759 39118 ft 418 kts
2026-04-17 14:00 51.61650 9.45763 39188 ft 420 kts
2026-04-17 14:00 51.67316 9.47763 39195 ft 419 kts
2026-04-17 14:01 51.73022 9.49781 39198 ft 420 kts
2026-04-17 14:01 51.78730 9.51805 39205 ft 420 kts
2026-04-17 14:02 51.84482 9.53216 39209 ft 416 kts 360°
2026-04-17 14:02 51.90217 9.53426 39205 ft 415 kts 357°
2026-04-17 14:03 51.95996 9.53605 39205 ft 416 kts 357°
2026-04-17 14:03 52.01772 9.53767 39201 ft 414 kts 357°
2026-04-17 14:04 52.07538 9.53910 39215 ft 414 kts 357°
2026-04-17 14:04 52.13266 9.54051 39198 ft 415 kts 357°
2026-04-17 14:05 52.19038 9.54194 39210 ft 415 kts 357°
2026-04-17 14:05 52.24800 9.54337 39202 ft 414 kts 357°
2026-04-17 14:06 52.30559 9.54480 39205 ft 414 kts 357°
2026-04-17 14:06 52.36323 9.54624 39210 ft 415 kts 356°
2026-04-17 14:07 52.42064 9.54768 39222 ft 416 kts 356°
2026-04-17 14:07 52.47851 9.54914 39217 ft 416 kts 356°
2026-04-17 14:08 52.53626 9.55060 39211 ft 415 kts 356°
2026-04-17 14:08 52.59363 9.55204 39206 ft 415 kts 356°
2026-04-17 14:09 52.65127 9.55349 39199 ft 414 kts 356°
2026-04-17 14:09 52.70901 9.55495 39202 ft 416 kts 356°
2026-04-17 14:10 52.76579 9.54393 39204 ft 410 kts 345°
2026-04-17 14:10 52.82160 9.52485 39199 ft 409 kts 345°
2026-04-17 14:11 52.87738 9.50586 39193 ft 409 kts 345°
2026-04-17 14:11 52.93273 9.48701 39190 ft 409 kts 345°
2026-04-17 14:12 52.98847 9.46797 39187 ft 409 kts 345°
2026-04-17 14:12 53.04420 9.44888 39188 ft 409 kts 345°
2026-04-17 14:13 53.12782 9.42013 39191 ft 409 kts 345°
2026-04-17 14:13 53.18328 9.40100 39199 ft 410 kts 344°
2026-04-17 14:14 53.23919 9.38167 39201 ft 411 kts 344°
2026-04-17 14:14 53.29521 9.36225 39205 ft 411 kts 344°